STARLINK-11187, 60184

Orbit data source: Space-Track

STARLINK-11187, 60184 is a payload satellite owned by SpaceX/Seattle (US) in LEO that was launched on Wed, 03 Jul 2024 UTC via an FALCON 9 launch vehicle from the Air Force Eastern Test Range (AFETR). Payload-class satellites include a variety of spacecraft equipped with specific instruments for various scientific and technological missions. These include communications satellites like Starlink; space stations such as the ISS; scientific satellites like the Hubble; Earth observation satellites from companies like Planet Labs, Umbra, and HawkEye 360; GPS; miniature CubeSats for education and research; and military/defense satellites.

Loading next visibility...
Identifier
60184, 2024-124B
Orbit
LEO
Country
Flag of USUS
Related business
Manufacturer
SpaceX/Seattle
Mission
Operational Commercial Communications
Bus & Motor
STARLINK V2MD, Unknown motor
Mass
960 kg wet, ~910 kg dry
Launch date (UTC)
2024-07-03 (2 years ago)
Launch vehicle
FALCON 9
Launch site
Air Force Eastern Test Range (AFETR)
Object type
Payload
Rocket body
Debris
Shape & HBR
Box + 2 Pan, 18.1 m
Radar Cross Section
36.964 m², Large (>1 m²)

Expand to show TLE details & history
Last TLE update: 10 hours ago

TLE from 10 hours ago
0 STARLINK-11187
1 60184U 24124B   26035.94888264  .00005091  00000-0  46843-4 0  9991
2 60184  53.1569 322.5181 0000710 107.2205 252.8891 15.69713107 91394
Epoch: 2026-02-04T22:46Z
TLE epoch observation values (Epoch: 2026-02-04T22:46:23.460Z)
Latitude
0.00003°
Longitude
-154.18776°
Altitude
360.773 km
Speed
7.694 km/s
True Right ascension
21h 30m 04s
True Declination
0° 00' 00"
Sunlit
Object was in daylight at epoch
Visualization orbit readout
Latitude
Unknown
Longitude
Unknown
Altitude
Unknown
Speed
Unknown
Apparent Right ascension
Unknown
Apparent Declination
Unknown
Sunlit
N/A
Visualization observer readout
Local Sidereal Time
10:24:57
Azimuth
Unknown
Elevation
Unknown
Doppler factor
Unknown
Orbital elements
Apogee altitude
360.457 km
Perigee altitude
359.501 km
Semi-major axis
6,738.116 km
Eccentricity
0.00007
Inclination
53.1569°
RAAN
322.5181°
Arg. of periapsis
107.2205°
True anomaly
252.88132°
Mean anomaly
252.8891°
Eccentric anomaly
252.88521°
Mean motion
3.92406 °/min
Orbital period
91.74 mins
BSTAR
0.000046843
Loading maneuver chart data...
Computing Atmospheric mass density...
Loading historical data...
Loading historical data...
Loading historical data...
Loading historical data...
Loading historical data...
Loading historical data...
Loading historical data...

Documentation

Showing up to 5 results
|